When you browse on this site, cookies collect data to enhance your experience and personalize the content and advertising you see.
Visit our Privacy Policy to learn more. By continuing to use the site, you agree to this use of cookies and data.
  • In Netherlands
  • List of Countries
  • For 7 days
  • Water Temperature
  • Weather Map
  • Weather Widgets
  • user-avatar
    Login

    Hourly Weather Armawir

    Today, 19 September, Thursday

    Time Temperature Precipitation Wind Pressure Humidity
    00:00 +19°C° 0 mm 0 mps 690 mmHg 37%
    01:00 +21°C° 0 mm 1 mps 690 mmHg 37%
    02:00 +20°C° 0 mm 1 mps 689 mmHg 38%
    03:00 +20°C° 0 mm 1 mps 689 mmHg 39%
    04:00 +20°C° 0 mm 1 mps 689 mmHg 40%
    05:00 +19°C° 0 mm 1 mps 689 mmHg 41%
    06:00 +19°C° 0 mm 1 mps 689 mmHg 42%
    07:00 +21°C° 0 mm 1 mps 689 mmHg 37%
    08:00 +24°C° 0 mm 1 mps 690 mmHg 32%
    09:00 +27°C° 0 mm 1 mps 691 mmHg 27%
    10:00 +28°C° 0 mm 1 mps 690 mmHg 25%
    11:00 +29°C° 0 mm 1 mps 690 mmHg 23%
    12:00 +31°C° 0 mm 1 mps 690 mmHg 21%
    13:00 +31°C° 0 mm 1 mps 690 mmHg 19%
    14:00 +32°C° 0 mm 1 mps 690 mmHg 18%
    15:00 +32°C° 0 mm 2 mps 690 mmHg 17%
    16:00 +31°C° 0 mm 2 mps 689 mmHg 19%
    17:00 +29°C° 0 mm 2 mps 689 mmHg 22%
    18:00 +27°C° 0 mm 2 mps 689 mmHg 24%
    19:00 +26°C° 0 mm 2 mps 689 mmHg 25%
    20:00 +25°C° 0 mm 2 mps 689 mmHg 26%
    21:00 +24°C° 0 mm 2 mps 689 mmHg 27%
    22:00 +24°C° 0 mm 2 mps 689 mmHg 29%
    23:00 +23°C° 0 mm 2 mps 689 mmHg 31%

    Tomorrow, 20 September, Friday

    Time Temperature Precipitation Wind Pressure Humidity
    00:00 +22°C° 0 mm 1 mps 689 mmHg 32%
    01:00 +21°C° 0 mm 1 mps 688 mmHg 35%
    02:00 +21°C° 0 mm 1 mps 688 mmHg 38%
    03:00 +20°C° 0 mm 1 mps 688 mmHg 41%
    04:00 +20°C° 0 mm 1 mps 688 mmHg 42%
    05:00 +19°C° 0 mm 1 mps 688 mmHg 44%
    06:00 +19°C° 0 mm 1 mps 687 mmHg 46%
    07:00 +21°C° 0 mm 1 mps 688 mmHg 40%
    08:00 +24°C° 0 mm 1 mps 688 mmHg 34%
    09:00 +26°C° 0 mm 1 mps 689 mmHg 28%
    10:00 +28°C° 0 mm 2 mps 688 mmHg 25%
    11:00 +30°C° 0 mm 2 mps 688 mmHg 21%
    12:00 +31°C° 0 mm 3 mps 688 mmHg 17%
    13:00 +33°C° 0 mm 3 mps 687 mmHg 16%
    14:00 +34°C° 0 mm 2 mps 687 mmHg 15%
    15:00 +34°C° 0 mm 2 mps 686 mmHg 13%
    16:00 +32°C° 0 mm 2 mps 686 mmHg 15%
    17:00 +30°C° 0 mm 2 mps 685 mmHg 18%
    18:00 +28°C° 0 mm 2 mps 685 mmHg 20%
    19:00 +27°C° 0 mm 2 mps 685 mmHg 21%
    20:00 +26°C° 0 mm 2 mps 685 mmHg 21%
    21:00 +25°C° 0 mm 2 mps 685 mmHg 22%
    22:00 +24°C° 0 mm 1 mps 685 mmHg 24%
    23:00 +23°C° 0 mm 1 mps 684 mmHg 25%

    Day after tomorrow, 21 September, Saturday

    Time Temperature Precipitation Wind Pressure Humidity
    00:00 +23°C° 0 mm 1 mps 684 mmHg 27%
    01:00 +22°C° 0 mm 1 mps 684 mmHg 28%
    02:00 +22°C° 0 mm 1 mps 683 mmHg 30%
    03:00 +21°C° 0 mm 1 mps 683 mmHg 31%
    04:00 +20°C° 0 mm 2 mps 683 mmHg 36%
    05:00 +19°C° 0 mm 3 mps 683 mmHg 41%
    06:00 +18°C° 0 mm 3 mps 683 mmHg 46%
    07:00 +21°C° 0 mm 4 mps 683 mmHg 41%
    08:00 +23°C° 0 mm 4 mps 683 mmHg 37%
    09:00 +26°C° 0 mm 5 mps 684 mmHg 32%
    10:00 +28°C° 0 mm 5 mps 684 mmHg 28%
    11:00 +29°C° 0 mm 5 mps 684 mmHg 24%
    12:00 +32°C° 0 mm 6 mps 684 mmHg 20%
    13:00 +32°C° 0 mm 7 mps 684 mmHg 20%
    14:00 +31°C° 0 mm 8 mps 684 mmHg 21%
    15:00 +31°C° 0 mm 10 mps 684 mmHg 21%
    16:00 +27°C° 0 mm 9 mps 684 mmHg 25%
    17:00 +24°C° 0 mm 9 mps 684 mmHg 30%
    18:00 +21°C° 0 mm 9 mps 684 mmHg 34%
    19:00 +20°C° 0 mm 8 mps 685 mmHg 35%
    20:00 +17°C° 0 mm 7 mps 686 mmHg 36%
    21:00 +16°C° 0 mm 6 mps 687 mmHg 37%
    22:00 +15°C° 0 mm 6 mps 687 mmHg 38%
    23:00 +14°C° 0 mm 6 mps 687 mmHg 38%

    22 September, Sunday

    Time Temperature Precipitation Wind Pressure Humidity
    00:00 +14°C° 0 mm 5 mps 688 mmHg 39%
    01:00 +13°C° 0 mm 5 mps 688 mmHg 40%
    02:00 +13°C° 0 mm 5 mps 688 mmHg 42%
    03:00 +12°C° 0 mm 5 mps 688 mmHg 43%
    04:00 +12°C° 0 mm 4 mps 688 mmHg 45%
    05:00 +11°C° 0 mm 4 mps 688 mmHg 46%
    06:00 +11°C° 0 mm 3 mps 688 mmHg 47%
    07:00 +13°C° 0 mm 3 mps 689 mmHg 43%
    08:00 +14°C° 0 mm 3 mps 689 mmHg 38%
    09:00 +17°C° 0 mm 3 mps 689 mmHg 33%
    10:00 +18°C° 0 mm 3 mps 689 mmHg 30%
    11:00 +20°C° 0 mm 2 mps 689 mmHg 27%
    12:00 +21°C° 0 mm 2 mps 689 mmHg 23%
    13:00 +23°C° 0 mm 2 mps 689 mmHg 23%
    14:00 +24°C° 0 mm 2 mps 688 mmHg 22%
    15:00 +25°C° 0 mm 2 mps 688 mmHg 21%
    16:00 +23°C° 0 mm 1 mps 687 mmHg 24%
    17:00 +21°C° 0 mm 1 mps 687 mmHg 27%
    18:00 +20°C° 0 mm 1 mps 687 mmHg 31%
    19:00 +19°C° 0 mm 1 mps 687 mmHg 34%
    20:00 +18°C° 0 mm 1 mps 687 mmHg 37%
    21:00 +16°C° 0 mm 2 mps 687 mmHg 40%
    22:00 +16°C° 0 mm 2 mps 687 mmHg 43%
    23:00 +15°C° 0 mm 2 mps 687 mmHg 47%

    23 September, Monday

    Time Temperature Precipitation Wind Pressure Humidity
    00:00 +15°C° 0 mm 2 mps 687 mmHg 50%
    01:00 +14°C° 0 mm 2 mps 687 mmHg 52%
    02:00 +14°C° 0 mm 2 mps 687 mmHg 53%
    03:00 +13°C° 0 mm 2 mps 687 mmHg 55%
    04:00 +13°C° 0 mm 2 mps 687 mmHg 55%
    05:00 +12°C° 0 mm 2 mps 687 mmHg 56%
    06:00 +12°C° 0 mm 2 mps 687 mmHg 57%
    07:00 +15°C° 0 mm 2 mps 687 mmHg 50%
    08:00 +17°C° 0 mm 2 mps 688 mmHg 43%
    09:00 +19°C° 0 mm 2 mps 688 mmHg 37%
    10:00 +21°C° 0 mm 2 mps 688 mmHg 33%
    11:00 +23°C° 0 mm 2 mps 688 mmHg 30%
    12:00 +25°C° 0 mm 1 mps 689 mmHg 27%
    13:00 +26°C° 0 mm 1 mps 688 mmHg 25%
    14:00 +26°C° 0 mm 1 mps 688 mmHg 23%
    15:00 +27°C° 0 mm 1 mps 687 mmHg 21%
    16:00 +25°C° 0 mm 1 mps 687 mmHg 25%
    17:00 +24°C° 0 mm 1 mps 687 mmHg 28%
    18:00 +22°C° 0 mm 1 mps 687 mmHg 31%
    19:00 +21°C° 0 mm 1 mps 687 mmHg 34%
    20:00 +19°C° 0 mm 2 mps 688 mmHg 37%
    21:00 +18°C° 0 mm 2 mps 688 mmHg 40%
    22:00 +18°C° 0 mm 2 mps 688 mmHg 43%
    23:00 +17°C° 0 mm 2 mps 688 mmHg 46%

    24 September, Tuesday

    Time Temperature Precipitation Wind Pressure Humidity
    00:00 +16°C° 0 mm 2 mps 688 mmHg 49%
    01:00 +16°C° 0 mm 2 mps 688 mmHg 50%
    02:00 +15°C° 0 mm 2 mps 688 mmHg 52%
    03:00 +14°C° 0 mm 2 mps 688 mmHg 53%
    04:00 +14°C° 0 mm 2 mps 688 mmHg 54%
    05:00 +13°C° 0 mm 2 mps 688 mmHg 55%
    06:00 +13°C° 0 mm 2 mps 688 mmHg 56%
    07:00 +15°C° 0 mm 2 mps 688 mmHg 50%
    08:00 +17°C° 0 mm 2 mps 689 mmHg 43%
    09:00 +20°C° 0 mm 2 mps 689 mmHg 37%
    10:00 +21°C° 0 mm 2 mps 689 mmHg 35%
    11:00 +23°C° 0 mm 2 mps 689 mmHg 32%
    12:00 +25°C° 0 mm 2 mps 689 mmHg 30%
    13:00 +26°C° 0 mm 2 mps 689 mmHg 28%
    14:00 +27°C° 0 mm 2 mps 689 mmHg 26%
    15:00 +27°C° 0 mm 2 mps 688 mmHg 24%
    16:00 +26°C° 0 mm 2 mps 688 mmHg 28%
    17:00 +24°C° 0 mm 2 mps 688 mmHg 31%
    18:00 +22°C° 0 mm 1 mps 687 mmHg 34%
    19:00 +21°C° 0 mm 1 mps 688 mmHg 37%
    20:00 +19°C° 0 mm 2 mps 688 mmHg 40%
    21:00 +18°C° 0 mm 2 mps 688 mmHg 42%
    22:00 +19°C° 0 mm 1 mps 688 mmHg 44%
    23:00 +18°C° 0 mm 1 mps 688 mmHg 46%
    Show more